Abilene, TX

7:04 PM CDT on July 27, 2017 (GMT -0500)
Abilene Regional

Weather History for KABI - December, 2011

Change the Weather History Date:

Sunday, December 25, 2011

  Actual Average Record
Temperature  
Mean Temperature 38 °F 44 °F  
Max Temperature 42 °F 56 °F 76 °F (1971)
Min Temperature 33 °F 33 °F 6 °F (1983)
Degree Days  
Heating Degree Days 27 21  
Month to date heating degree days 543 486  
Since 1 July heating degree days 930 919  
Cooling Degree Days 0 0  
Month to date cooling degree days 0 0  
Year to date cooling degree days 3517 2408  
Moisture  
Dew Point 35 °F    
Average Humidity 88    
Maximum Humidity 100    
Minimum Humidity 76    
Precipitation  
Precipitation 0.07 in 0.03 in 2.17 in (1987)
Month to date precipitation 1.93 1.00  
Year to date precipitation 16.83 24.59  
Sea Level Pressure  
Sea Level Pressure 30.41 in    
Wind  
Wind Speed 6 mph (NNW)    
Max Wind Speed 10 mph    
Max Gust Speed 13 mph    
Visibility 8 miles    
Events Rain , Snow    
T = Trace of Precipitation, MM = Missing Value Source: NWS Daily Summary

Daily Weather History Graph

Daily Weather History Graph

Search for Another Location

Airport or City:

Trip Planner

Search our weather history database for the weather conditions in past years. The results will help you decide how hot, cold, wet, or windy it might be!

Date:

Astronomy

Dec. 25, 2011 Rise Set
Actual Time 7:37 AM CST 5:39 PM CST
Civil Twilight 7:10 AM CST 6:06 PM CST
Nautical Twilight 6:40 AM CST 6:37 PM CST
Astronomical Twilight 6:10 AM CST 7:07 PM CST
Moon 8:19 AM CST (12/25) 6:58 PM CST (12/25)
Length of Visible Light 10h 56m
Length of Day
10h 01m
New Moon, 1% of the Moon is Illuminated
Dec 25
New Moon
Jan 1
First Quarter
Jan 9
Full
Jan 16
Last Quarter
Jan 23
New

Hourly Weather History & Observations

Time (CST) Temp. Windchill Dew Point Humidity Pressure Visibility Wind Dir Wind Speed Gust Speed Precip Events Conditions
12:01 AM 35.6 °F 30.7 °F 33.8 °F 93% 30.41 in 4.0 mi NW 5.8 mph - N/A   Overcast
12:22 AM 35.6 °F 30.7 °F 33.8 °F 93% 30.42 in 4.0 mi NW 5.8 mph - N/A   Overcast
12:52 AM 34.0 °F 29.8 °F 34.0 °F 100% 30.44 in 3.0 mi NW 4.6 mph - 0.01 in Rain Light Rain
1:14 AM 33.8 °F 28.6 °F 33.8 °F 100% 30.41 in 2.5 mi NW 5.8 mph - 0.01 in Rain Light Rain
1:27 AM 33.8 °F 28.6 °F 33.8 °F 100% 30.41 in 3.0 mi NW 5.8 mph - 0.02 in Rain Light Rain
1:52 AM 34.0 °F 29.8 °F 34.0 °F 100% 30.43 in 3.0 mi NW 4.6 mph - 0.03 in Rain Light Rain
2:05 AM 33.8 °F 29.6 °F 33.8 °F 100% 30.41 in 3.0 mi NNW 4.6 mph - 0.00 in   Overcast
2:34 AM 33.8 °F 30.8 °F 33.8 °F 100% 30.40 in 2.5 mi North 3.5 mph - 0.02 in Snow Light Snow
2:41 AM 33.8 °F - 33.8 °F 100% 30.40 in 4.0 mi Calm Calm - 0.02 in Rain Light Rain
2:49 AM 33.8 °F 30.8 °F 33.8 °F 100% 30.40 in 5.0 mi North 3.5 mph - 0.02 in Rain Light Freezing Rain
2:52 AM 33.1 °F 30.0 °F 33.1 °F 100% 30.42 in 5.0 mi NNE 3.5 mph - 0.02 in Rain Light Freezing Rain
3:43 AM 33.8 °F 28.6 °F 33.8 °F 100% 30.41 in 7.0 mi North 5.8 mph - 0.01 in Snow Light Snow
3:52 AM 33.1 °F 27.7 °F 33.1 °F 100% 30.43 in 8.0 mi NNW 5.8 mph - 0.01 in   Overcast
4:16 AM 33.8 °F 30.8 °F 33.8 °F 100% 30.40 in 10.0 mi NW 3.5 mph - N/A   Overcast
4:52 AM 33.1 °F 30.0 °F - N/A% 30.42 in 10.0 mi NNW 3.5 mph - N/A   Overcast
5:07 AM 33.8 °F 29.6 °F 33.8 °F 100% 30.39 in 10.0 mi NNW 4.6 mph - N/A   Overcast
5:34 AM 33.8 °F 29.6 °F 33.8 °F 100% 30.38 in 10.0 mi NW 4.6 mph - N/A   Overcast
5:52 AM 34.0 °F 29.8 °F 34.0 °F 100% 30.41 in 10.0 mi NW 4.6 mph - N/A   Overcast
6:28 AM 33.8 °F 29.6 °F 33.8 °F 100% 30.39 in 10.0 mi NNW 4.6 mph - N/A   Overcast
6:52 AM 34.0 °F 28.8 °F 34.0 °F 100% 30.42 in 10.0 mi NW 5.8 mph - N/A   Overcast
7:52 AM 34.0 °F 29.8 °F 34.0 °F 100% 30.43 in 10.0 mi NW 4.6 mph - N/A   Overcast
8:49 AM 35.6 °F 30.7 °F 35.6 °F 100% 30.43 in 8.0 mi WNW 5.8 mph - N/A   Overcast
8:52 AM 35.1 °F 30.1 °F 35.1 °F 100% 30.45 in 8.0 mi NW 5.8 mph - N/A   Overcast
9:52 AM 37.0 °F 31.6 °F 36.0 °F 96% 30.48 in 10.0 mi NW 6.9 mph - N/A   Overcast
10:52 AM 37.9 °F 32.1 °F 36.0 °F 93% 30.48 in 8.0 mi North 8.1 mph - N/A   Overcast
11:52 AM 39.0 °F 34.8 °F 36.0 °F 89% 30.46 in 10.0 mi NNW 5.8 mph - N/A   Overcast
12:03 PM 39.2 °F 34.2 °F 35.6 °F 87% 30.44 in 10.0 mi North 6.9 mph - N/A   Overcast
12:52 PM 41.0 °F 39.0 °F 36.0 °F 82% 30.44 in 10.0 mi NNW 3.5 mph - N/A   Overcast
1:24 PM 42.8 °F 39.3 °F 37.4 °F 81% 30.40 in 10.0 mi NNW 5.8 mph - N/A   Overcast
1:52 PM 41.0 °F - 36.0 °F 82% 30.41 in 10.0 mi Calm Calm - N/A   Overcast
2:52 PM 42.1 °F 37.1 °F 36.0 °F 79% 30.40 in 10.0 mi North 8.1 mph - N/A   Overcast
3:24 PM 41.0 °F 34.7 °F 35.6 °F 81% 30.38 in 10.0 mi North 10.4 mph - N/A   Overcast
3:52 PM 41.0 °F 35.2 °F 36.0 °F 82% 30.40 in 10.0 mi North 9.2 mph - N/A   Overcast
4:52 PM 41.0 °F 35.8 °F 36.0 °F 82% 30.40 in 10.0 mi North 8.1 mph - N/A   Overcast
5:10 PM 41.0 °F 35.8 °F 35.6 °F 81% 30.38 in 10.0 mi NNW 8.1 mph - N/A   Overcast
5:52 PM 39.9 °F 34.5 °F 36.0 °F 86% 30.40 in 10.0 mi North 8.1 mph - N/A   Overcast
6:52 PM 39.9 °F 35.8 °F 36.0 °F 86% 30.41 in 10.0 mi NNW 5.8 mph - N/A   Overcast
7:52 PM 39.9 °F 34.5 °F 36.0 °F 86% 30.41 in 10.0 mi NNW 8.1 mph - N/A   Overcast
8:52 PM 39.0 °F 34.0 °F 36.0 °F 89% 30.41 in 10.0 mi NNW 6.9 mph - N/A   Overcast
9:52 PM 39.0 °F 33.4 °F 36.0 °F 89% 30.39 in 10.0 mi NW 8.1 mph - N/A   Overcast
10:52 PM 39.0 °F 35.7 °F 35.1 °F 86% 30.38 in 10.0 mi NW 4.6 mph - N/A   Overcast
11:52 PM 39.0 °F - 35.1 °F 86% 30.37 in 10.0 mi Calm Calm - N/A   Overcast